Content
SEND FEEDBACK

Daily
Averages
Monthly
Summary
Switzerland

GENEVA, SWITZERLAND


Home > Europe > Switzerland
Elevation: 1364 feet     Latitude: 46 15N     Longitude: 006 08E

WEATHER
 
SELECT A DAY
Number of Records: 313,434;   Date Range: 7/1/96 - 10/24/14
 
SHARE

PRINT THIS DATA

[ ← Previous Day ]
WEATHER ALMANAC - JUNE 19, 2013
[ Next Day → ]
[ °C ]   °F
Weather ElementAverageHighLow
Temperature76.2 °F91.4 °F (4:50 pm)64.4 °F (5:50 am)
Dewpoint63.5 °F68 °F (12:20 am)55.4 °F (4:50 pm)
Humidity65.4 %94 % (3:50 am)29 % (4:50 pm)
Barometer29.89 in29.95 in (10:20 pm)29.78 in (6:00 pm)
Wind Speed4.6 mph17.3 mph (8:00 pm)
Weather ElementAverage
Visibility7.8 mi
Wind DirectionESE (97.4 °)

Weather ElementTotal
Precipitation---
Cooling Degree Days12.9 (Base 65)
Growing Degree Days27.9 (Base 50)
Averaged from 65 records on June 19, 2013
WEATHER CONDITIONS BREAKOUT
WIND DIRECTION BREAKOUT
WEATHER BY HOUR - JUNE 19, 2013
[ °C ]   °F
Local TimeTemperatureDewpointHumidityBarometerVisibilityWind DirectionWind SpeedGust SpeedPrecipitationEventsConditions
12:20 AM73.4 °F68.0 °F83 %29.92 inVariable1.2 mphClear
12:50 AM71.6 °F68.0 °F88 %29.92 inVariable2.3 mphClear
1:00 AM71.0 °F66.0 °F80 %29.87 inWSW (250°)3.5 mph
1:20 AM69.8 °F66.2 °F88 %29.92 inCalmClear
1:50 AM69.8 °F66.2 °F88 %29.92 inVariable2.3 mphClear
2:00 AM70.0 °F65.0 °F81 %29.88 in16.0 miNW (310°)2.3 mphPartly Cloudy
2:20 AM69.8 °F66.2 °F88 %29.92 inWNW (290°)2.3 mphClear
2:50 AM68.0 °F64.4 °F88 %29.92 inCalmClear
3:00 AM68.0 °F64.0 °F84 %29.88 inSE (130°)1.2 mph
3:50 AM66.2 °F64.4 °F94 %29.92 inCalmClear
4:00 AM66.0 °F63.0 °F87 %29.87 inENE (70°)1.2 mph
4:20 AM66.2 °F64.4 °F94 %29.89 inCalmClear
4:50 AM66.2 °F64.4 °F94 %29.89 inCalmClear
5:20 AM66.2 °F64.4 °F94 %29.89 inCalmClear
5:50 AM64.4 °F62.6 °F94 %29.89 inCalmClear
6:00 AM65.0 °F62.0 °F89 %29.87 inNW (320°)1.2 mph
6:20 AM64.4 °F62.6 °F94 %29.89 inCalmClear
6:50 AM66.2 °F64.4 °F94 %29.92 inCalmClear
7:00 AM67.0 °F63.0 °F83 %29.88 inNNW (340°)2.3 mph
7:20 AM68.0 °F64.4 °F88 %29.92 inVariable2.3 mphClear
7:50 AM69.8 °F64.4 °F83 %29.92 inCalmClear
8:00 AM70.0 °F62.0 °F70 %29.86 in11.0 miSSE (160°)1.2 mphScattered Clouds
8:20 AM71.6 °F64.4 °F78 %29.89 inVariable1.2 mphClear
8:50 AM73.4 °F64.4 °F73 %29.89 inCalmClear
9:00 AM72.0 °F64.0 °F69 %29.86 inWSW (250°)2.3 mph
9:20 AM75.2 °F64.4 °F69 %29.89 inVariable2.3 mphClear
9:50 AM75.2 °F60.8 °F61 %29.89 inVariable1.2 mphClear
10:00 AM74.0 °F62.0 °F56 %29.85 inNNE (20°)2.3 mph
10:20 AM77.0 °F62.6 °F61 %29.92 inVariable1.2 mphClear
10:50 AM78.8 °F64.4 °F61 %29.92 inVariable1.2 mphClear
11:20 AM82.4 °F64.4 °F54 %29.92 inVariable2.3 mphClear
11:50 AM82.4 °F62.6 °F51 %29.92 in6.2 miEast (80°)4.6 mphMostly Cloudy
12:00 PM79.0 °F63.0 °F48 %29.84 inENE (70°)6.9 mph
12:20 PM82.4 °F62.6 °F51 %29.92 in6.2 miEast (90°)4.6 mphMostly Cloudy
12:50 PM84.2 °F60.8 °F45 %29.92 inVariable2.3 mphClear
1:00 PM81.0 °F61.0 °F40 %29.84 inNorth3.5 mph
1:20 PM84.2 °F62.6 °F48 %29.92 in6.2 miVariable1.2 mphMostly Cloudy
1:50 PM84.2 °F64.4 °F51 %29.89 in6.2 miVariable1.2 mphMostly Cloudy
2:00 PM82.0 °F63.0 °F43 %29.83 in14.0 miNE (40°)5.8 mphScattered Clouds
2:20 PM84.2 °F64.4 °F51 %29.89 inENE (70°)4.6 mphClear
2:50 PM86.0 °F64.4 °F48 %29.89 inVariable2.3 mphClear
3:20 PM84.2 °F66.2 °F55 %29.89 inEast (80°)3.5 mphClear
3:50 PM87.8 °F62.6 °F43 %29.89 inVariable2.3 mphClear
4:00 PM86.0 °F62.0 °F34 %29.81 inSW (230°)2.3 mph
4:20 PM89.6 °F57.2 °F33 %29.89 in6.2 miVariable1.2 mphScattered Clouds
4:50 PM91.4 °F55.4 °F29 %29.86 in6.2 miVariable1.2 mphPartly Cloudy
5:20 PM89.6 °F55.4 °F31 %29.86 in6.2 miVariable2.3 mphPartly Cloudy
5:50 PM86.0 °F64.4 °F48 %29.86 in6.2 miSW (220°)12.7 mphPartly Cloudy
6:00 PM86.0 °F64.0 °F37 %29.78 inSW (220°)10.4 mph
6:20 PM84.2 °F64.4 °F51 %29.86 in6.2 miSSW (210°)12.7 mphPartly Cloudy
6:50 PM82.4 °F64.4 °F54 %29.86 in6.2 miSW (230°)15.0 mphPartly Cloudy
7:00 PM81.0 °F64.0 °F46 %29.80 inSW (220°)16.1 mph
7:20 PM82.4 °F64.4 °F54 %29.86 in6.2 miSSW (210°)16.1 mphPartly Cloudy
7:50 PM80.6 °F64.4 °F58 %29.89 in6.2 miSW (220°)13.8 mphPartly Cloudy
8:00 PM80.0 °F64.0 °F49 %29.81 in14.0 miSSW (210°)17.3 mphScattered Clouds
8:20 PM78.8 °F64.4 °F61 %29.89 in6.2 miSSW (210°)15.0 mphPartly Cloudy
8:50 PM77.0 °F64.4 °F65 %29.89 inSSW (200°)15.0 mphClear
9:00 PM77.0 °F64.0 °F55 %29.84 inSSW (200°)15.0 mph
9:20 PM77.0 °F64.4 °F65 %29.92 in6.2 miSSW (200°)12.7 mphPartly Cloudy
9:50 PM75.2 °F62.6 °F65 %29.92 in6.2 miSSW (210°)9.2 mphScattered Clouds
10:00 PM75.0 °F62.0 °F56 %29.87 inSSW (200°)9.2 mph
10:20 PM75.2 °F62.6 °F65 %29.95 inSSW (210°)4.6 mphClear
10:50 PM73.4 °F62.6 °F69 %29.95 inVariable2.3 mphClear
11:20 PM73.4 °F62.6 °F69 %29.95 inSouth (170°)5.8 mphClear
11:50 PM71.6 °F62.6 °F73 %29.95 inSouth (190°)5.8 mphClear
Hourly data recorded from LSGG, located miles away from Geneva, Switzerland







STORIES FROM OUR PARTNERS